Change the Weather History Date:

Monday, April 8, 2013

  Actual Average Record
Temperature  
Mean Temperature 66 °F -  
Max Temperature 75 °F 64 °F - ()
Min Temperature 57 °F 42 °F - ()
Cooling Degree Days 1    
Growing Degree Days 16 (Base 50)    
Moisture  
Dew Point 28 °F    
Average Humidity 21    
Maximum Humidity 37    
Minimum Humidity 6    
Precipitation  
Precipitation 0.00 in 0.07 in - ()
Sea Level Pressure  
Sea Level Pressure 29.75 in    
Wind  
Wind Speed 11 mph ()    
Max Wind Speed 22 mph    
Max Gust Speed 32 mph    
Visibility 7.0 miles    
Events      
T = Trace of Precipitation, MM = Missing Value Source: Averaged Metar Reports

Daily Weather History Graph

Daily Weather History Graph

Search for Another Location

Airport or City:

Trip Planner

Search our weather history database for the weather conditions in past years. The results will help you decide how hot, cold, wet, or windy it might be!

Date:

Astronomy

Apr. 08, 2013 Rise Set
Actual Time 5:55 AM EEST 6:52 PM EEST
Civil Twilight 5:27 AM EEST 7:20 PM EEST
Nautical Twilight 4:55 AM EEST 7:53 PM EEST
Astronomical Twilight 4:21 AM EEST 8:27 PM EEST
Moon 4:33 AM EEST (4/8) 5:05 PM EEST (4/8)
Length of Visible Light 13h 52m
Length of Day
12h 57m
Waning Crescent, 4% of the Moon is Illuminated
Apr 8
Waning Crescent
Apr 10
New
Apr 18
First Quarter
Apr 25
Full
May 2
Last Quarter

Hourly Weather History & Observations

Time (EEST) Temp. Dew Point Humidity Pressure Visibility Wind Dir Wind Speed Gust Speed Precip Events Conditions
12:50 AM 62.6 °F 35.6 °F 37% 29.86 in - South 9.2 mph - N/A   Clear
1:50 AM 64.4 °F 33.8 °F 32% 29.83 in - South 10.4 mph - N/A   Clear
3:00 AM 59 °F 36 °F 29%  in 12 mi ESE 10.4 mph - -  
3:50 AM 60.8 °F 32.0 °F 34% 29.83 in - ESE 6.9 mph - N/A   Clear
4:50 AM 62.6 °F 30.2 °F 30% 29.80 in - SSE 11.5 mph - N/A   Clear
5:50 AM 60.8 °F 32.0 °F 34% 29.80 in - ESE 11.5 mph - N/A   Clear
6:50 AM 60.8 °F 33.8 °F 36% 29.80 in - SSE 11.5 mph - N/A   Clear
7:50 AM 68.0 °F 33.8 °F 28% 29.77 in - SE 16.1 mph - N/A   Clear
8:50 AM 73.4 °F 19.4 °F 13% 29.77 in - SSW 21.9 mph - N/A   Clear
9:00 AM 74 °F 19 °F 6%  in 12 mi SSW 21.9 mph - -  
9:50 AM 73.4 °F 21.2 °F 14% 29.74 in - South 20.7 mph - N/A   Clear
10:50 AM 75.2 °F 26.6 °F 17% 29.77 in - South 16.1 mph 32.2 mph N/A   Clear
11:50 AM 75.2 °F 28.4 °F 18% 29.77 in 6.2 mi SSE 9.2 mph - N/A   Partly Cloudy
12:50 PM 75.2 °F 26.6 °F 17% 29.77 in 6.2 mi South 13.8 mph - N/A   Partly Cloudy
1:50 PM 75.2 °F 28.4 °F 18% 29.74 in 6.2 mi South 12.7 mph - N/A   Partly Cloudy
2:50 PM 73.4 °F 28.4 °F 19% 29.71 in 6.2 mi Variable 6.9 mph 19.6 mph N/A   Scattered Clouds
3:00 PM 74 °F 28 °F 9%  in 9 mi SSE 6.9 mph - -   Partly Cloudy
3:50 PM 75.2 °F 28.4 °F 18% 29.71 in 6.2 mi SSW 12.7 mph 25.3 mph N/A   Mostly Cloudy
4:50 PM 73.4 °F 24.8 °F 16% 29.68 in 6.2 mi South 13.8 mph - N/A   Mostly Cloudy
5:50 PM 73.4 °F 21.2 °F 14% 29.68 in 6.2 mi SSW 8.1 mph - N/A   Mostly Cloudy
6:50 PM 71.6 °F 24.8 °F 17% 29.68 in 6.2 mi SSW 12.7 mph 24.2 mph N/A   Mostly Cloudy
7:50 PM 69.8 °F 30.2 °F 23% 29.71 in 6.2 mi SW 13.8 mph - N/A   Mostly Cloudy
8:50 PM 69.8 °F 28.4 °F 21% 29.68 in 6.2 mi SSW 12.7 mph - N/A   Mostly Cloudy
9:00 PM 69 °F 28 °F 12%  in 6 mi SSW 12.7 mph - -   Partly Cloudy
9:50 PM 68.0 °F 26.6 °F 21% 29.71 in 6.2 mi SW 16.1 mph - N/A   Mostly Cloudy
10:50 PM 66.2 °F 24.8 °F 21% 29.68 in 6.2 mi SW 10.4 mph - N/A   Mostly Cloudy
11:50 PM 64.4 °F 28.4 °F 26% 29.68 in 6.2 mi WSW 12.7 mph - N/A   Mostly Cloudy